Regional Weather Roundup
Issued by NWS

Home | Current Version | Previous Version | Text Only | Print | Product List | Glossary On
Versions: 1 2 3 4 5 6 7 8 9 10 11 12 13 14 15 16 17 18 19 20 21 22 23 24 25 26 27 28 29 30 31 32 33 34 35 36 37 38 39 40 41 42 43 44 45 46 47 48 49 50
000
ASUS45 KBOI 081710
RWRID

IDAHO REGIONAL WEATHER ROUNDUP
NATIONAL WEATHER SERVICE BOISE ID
1000 AM MST MON FEB 08 2016

NOTE: "FAIR" INDICATES FEW OR NO CLOUDS BELOW 12000 FEET
WITH NO SIGNIFICANT WEATHER AND/OR OBSTRUCTIONS TO VISIBILITY

IDZ012-014-081800-
SOUTHWEST IDAHO


CITY           SKY/WX    TMP DP  RH WIND       PRES   REMARKS
BOISE          SUNNY     36  30  79 SE3       30.71R
CALDWELL       SUNNY     37  30  75 VRB3      30.74R
MOUNTAIN HOME  CLOUDY    32  32 100 E16       30.72R WCI  22
$$

IDZ016-017-081800-
SOUTHCENTRAL IDAHO


CITY           SKY/WX    TMP DP  RH WIND       PRES   REMARKS
BURLEY         CLOUDY    28  27  96 E14       30.69S FOG     WCI  17
JEROME         CLOUDY    27  25  92 NE18      30.70S WCI  14
TWIN FALLS     MOSUNNY   30  27  88 NE10      30.70R WCI  21
$$

IDZ019>023-081800-
SOUTHEAST IDAHO


CITY           SKY/WX    TMP DP  RH WIND       PRES   REMARKS
IDAHO FALLS    CLOUDY    23  21  92 CALM      30.74S FOG
POCATELLO      CLOUDY    26  25  96 NE5       30.74R WCI  20
REXBURG        CLOUDY    24  23  96 CALM      30.72S FOG
$$

IDZ006-010-011-018-031-032-081800-
CENTRAL IDAHO MOUNTAINS


CITY           SKY/WX    TMP DP  RH WIND       PRES   REMARKS
MCCALL         FOG       18  16  92 CALM      30.65R VSB<1/4
HAILEY         MOSUNNY   25  18  74 NW5       30.69R WCI  19
STANLEY          N/A     11   7  84 CALM      30.72S
SALMON         CLOUDY    27  19  74 CALM      30.73F
CHALLIS        SUNNY     13  10  88 CALM      30.72S
$$

IDZ002-004-006-007-026-081800-
NORTHERN IDAHO


CITY           SKY/WX    TMP DP  RH WIND       PRES   REMARKS
LEWISTON       SUNNY     40  32  73 E3        30.63S
LOWELL           N/A     34  31  88 N5        30.71F WCI  30
COEUR D`ALENE  MOSUNNY   36  28  75 NE9       30.60  WCI  29
MULLAN PASS    PTSUNNY   33  27  78 S7        30.56S WCI  27
$$



USA.gov is the U.S. government's official web portal to all federal, state and local government web resources and services.